NOAA 16 DEB

Satellite information

Favourite Embed

Satellite Type and Status

DEBRISIN ORBIT

Key statistics

Satellite NOAA 16 DEB at a glance.

Uptime

9115

Days in orbit

Revolutions

≈ 14.3

Per day

Orbit

SSO

Sun Synchronous Orbit

Inclination

98.7

Latest

Satellite identification and parameters

Extended collection of information and parameters for NOAA 16 DEB.

Object identification

Identified? True

Debris? True

Object name: NOAA 16 DEB

International designator: 2000-055LC

Object number (NORAD): 41423

Object ID (CCSDS): 41423

Country: UNITED STATES OF AMERICA (US)

Current information (Y/N): Y

RCS size: SMALL

Orbital parameters

Period: 100.51 minutes

Inclination: 98.681 deg

SMA: 7160.886 km

Apoapsis: 790.015 km

Periapsis: 775.487 km

RAAN: 330.2936 deg

Eccentricy: 0.00101434

Argument of periapsis: 300.4954 deg

Mean anomaly: 59.5228 deg

Mean motion: 14.32691299 rev/day

Mean motion (dot): 0.0001032 rev/day2

B* drag term: 0.0038027425 1/REarth

Two-line elements (TLE)

Creation date: Sept. 3, 2025, 10:15 a.m.

Reference frame: TEME

Reference center: EARTH

Epoch: Sept. 3, 2025, 4:23 a.m. UTC

TLE line 0: 0 NOAA 16 DEB

TLE line 1: 1 41423U 00055LC 25246.18271071 .00010320 00000-0 38027-2 0 9998

TLE line 2: 2 41423 98.6810 330.2936 0010143 300.4954 59.5228 14.32691299496330

Live tracking on map

Real-time ground track for satellite NOAA 16 DEB.

In-orbit conjunctions

A list of the most updated potential collisions computed for object NOAA 16 DEB.

Target Orbit TCA Probability of collision Miss distance Type
COSMOS 836 LEO 2025-05-01 07:47:58 0.0001608632 714.0 (m) PAYLOAD
DELTA 4 DEB SSO 2024-05-27 01:10:18 0.0003284046 197.0 (m) DEBRIS

Associated space launch

The NOAA K, L and M POES satellites begin the fifth generation of improved environmental monitoring in support of NOAA missions. The instrument payload has significant improvements and additions/deletions. The instrument changes have effected the spacecraft subsystems and data formats.

NOAA 16 DEB was lifted into orbit during the mission ‘Titan II SLV | NOAA 16’, on board a Titan II SLV space rocket.

The launch took place on Sept. 21, 2000, 10:22 a.m. from Space Launch Complex 4W.

For more information about the launch, click the button.

Launch to space Titan II SLV | NOAA 16
Titan II SLV | NOAA 16

Agency: N/A

Status: Launch Successful

Launch date: Sept. 21, 2000, 10:22 a.m. UTC

Rocket: Titan II SLV

Launch pad: Space Launch Complex 4W

Location: Vandenberg SFB, CA, USA

...

Latest news about this satellite

There are no fresh news available about this satellite. Check back as we update our databases every day.


Newsletter sign-up

Weekly statistics, charts and insights to help you stay on top of the space industry.